Tracking 35274 objects as of 11-Sep-2026
HD Live streaming from Space Station
objects crossing your sky now

STARLINK-35754

Track STARLINK-35754 now!
10-day predictions


NORAD ID: 67054
Int'l Code: 2025-294AA
Launch date: December 11, 2025
Source: United States (US)
Launch site: AIR FORCE EASTERN TEST RANGE (AFETR)
Your satellite tracking list
Your tracking list is empty




NASA's NSSDC Master Catalog

Two Line Element Set (TLE):
1 67054U 25294AA  26253.82285913  .00020728  00000-0  75996-3 0  9998
2 67054  43.0017  72.4746 0001191 246.0643 114.0085 15.27609338 43118
Source of the keplerian elements: AFSPC